Terminal Aerodrome Forecast
Issued by NWS

Current Version | Previous Version | Graphics & Text | Print | Product List | Glossary On
Versions: 1 2 3 4 5 6 7 8 9 10 11 12 13 14 15 16 17 18 19 20 21 22 23 24 25 26 27 28 29 30 31 32 33 34 35 36 37 38 39
000
FTUS41 KRNK 201722
TAFLWB
TAF
KLWB 201722Z 2018/2118 24005KT P6SM SCT035
     FM202000 24005KT P6SM VCTS BKN035CB
     FM210400 00000KT P6SM SCT040
     FM210700 00000KT 1/2SM FG OVC002
     FM211200 28008KT 3SM BR VCTS BKN015CB=

USA.gov is the U.S. government's official web portal to all federal, state and local government web resources and services.